| time (UTC) | temp F | wind direction | speed MPH | gust MPH | rain 1hr in | rain 24hr in | rain mn in | humidity % | barometer mb |
| 20260906044206 | 77 | 9 | 0.0 | 0.0 | 0.00 | 0.22 | 0.22 | 99 | 1009.4 |
| 20260906043702 | 78 | 9 | 0.0 | 1.0 | 0.00 | 0.22 | 0.22 | 99 | 1009.2 |
| 20260906043157 | 78 | 9 | 0.0 | 1.0 | 0.00 | 0.22 | 0.22 | 99 | 1009.3 |
| 20260906042651 | 78 | 9 | 0.0 | 0.0 | 0.00 | 0.22 | 0.22 | 99 | 1009.1 |
| 20260906042145 | 78 | 9 | 0.0 | 0.0 | 0.00 | 0.22 | 0.22 | 99 | 1009.3 |
| 20260906041641 | 78 | 8 | 0.0 | 0.0 | 0.00 | 0.22 | 0.22 | 99 | 1009.2 |
| 20260906041136 | 79 | 8 | 0.0 | 0.0 | 0.00 | 0.22 | 0.22 | 98 | 1009.1 |
| 20260906040631 | 79 | 9 | 1.0 | 2.0 | 0.00 | 0.22 | 0.22 | 97 | 1009.2 |
| 20260906040127 | 79 | 351 | 1.0 | 1.0 | 0.00 | 0.22 | 0.22 | 96 | 1009.2 |
| 20260906035622 | 79 | 349 | 0.0 | 0.0 | 0.00 | 0.22 | 0.22 | 96 | 1009.0 |
| 20260906035117 | 79 | 349 | 0.0 | 0.0 | 0.00 | 0.22 | 0.22 | 96 | 1009.3 |
| 20260906034612 | 79 | 349 | 0.0 | 0.0 | 0.00 | 0.22 | 0.22 | 96 | 1009.3 |
| 20260906034106 | 79 | 349 | 0.0 | 0.0 | 0.00 | 0.22 | 0.22 | 97 | 1009.0 |
| 20260906033601 | 79 | 349 | 0.0 | 0.0 | 0.00 | 0.22 | 0.22 | 97 | 1009.1 |
| 20260906033057 | 79 | 349 | 0.0 | 0.0 | 0.00 | 0.22 | 0.22 | 96 | 1009.3 |
| 20260906032554 | 79 | 349 | 0.0 | 0.0 | 0.00 | 0.22 | 0.22 | 96 | 1009.4 |
| 20260906032048 | 79 | 349 | 0.0 | 0.0 | 0.00 | 0.22 | 0.22 | 96 | 1009.4 |
| 20260906031544 | 80 | 349 | 0.0 | 0.0 | 0.00 | 0.22 | 0.22 | 96 | 1009.2 |
| 20260906031039 | 79 | 349 | 0.0 | 0.0 | 0.00 | 0.22 | 0.22 | 95 | 1009.2 |
| 20260906030538 | 80 | 349 | 0.0 | 0.0 | 0.00 | 0.22 | 0.22 | 94 | 1009.1 |
| 20260906030037 | 80 | 349 | 0.0 | 0.0 | 0.00 | 0.22 | 0.22 | 94 | 1009.2 |
| 20260906025532 | 80 | 349 | 0.0 | 0.0 | 0.00 | 0.22 | 0.22 | 93 | 1009.2 |
| 20260906025030 | 80 | 349 | 0.0 | 0.0 | 0.00 | 0.22 | 0.22 | 92 | 1009.2 |
| 20260906024525 | 80 | 349 | 0.0 | 0.0 | 0.00 | 0.22 | 0.22 | 92 | 1009.3 |
| 20260906024020 | 80 | 349 | 0.0 | 0.0 | 0.00 | 0.22 | 0.22 | 93 | 1009.1 |
| 20260906023516 | 81 | 349 | 0.0 | 0.0 | 0.00 | 0.22 | 0.22 | 94 | 1009.4 |
| 20260906023010 | 81 | 349 | 0.0 | 0.0 | 0.00 | 0.22 | 0.22 | 94 | 1009.2 |
| 20260906022506 | 80 | 349 | 0.0 | 1.0 | 0.00 | 0.22 | 0.22 | 94 | 1009.2 |
| 20260906021955 | 80 | 349 | 1.0 | 1.0 | 0.00 | 0.22 | 0.22 | 92 | 1009.0 |
| 20260906021450 | 81 | 351 | 0.0 | 0.0 | 0.00 | 0.22 | 0.22 | 92 | 1008.9 |
| 20260906020944 | 81 | 351 | 0.0 | 0.0 | 0.00 | 0.22 | 0.22 | 91 | 1009.0 |
| 20260906020438 | 81 | 349 | 0.0 | 0.0 | 0.00 | 0.22 | 0.22 | 89 | 1009.0 |
| 20260906015933 | 81 | 348 | 0.0 | 0.0 | 0.00 | 0.22 | 0.22 | 89 | 1008.8 |
| 20260906015427 | 82 | 348 | 0.0 | 1.0 | 0.00 | 0.22 | 0.22 | 89 | 1008.7 |
| 20260906014927 | 82 | 348 | 1.0 | 1.0 | 0.00 | 0.22 | 0.22 | 89 | 1008.8 |
| 20260906014427 | 82 | 349 | 0.0 | 0.0 | 0.00 | 0.22 | 0.22 | 91 | 1008.5 |
| 20260906013923 | 82 | 349 | 0.0 | 0.0 | 0.00 | 0.22 | 0.22 | 90 | 1008.7 |
| 20260906013418 | 82 | 349 | 0.0 | 0.0 | 0.00 | 0.22 | 0.22 | 89 | 1008.8 |
| 20260906012914 | 83 | 349 | 0.0 | 0.0 | 0.00 | 0.22 | 0.22 | 91 | 1008.6 |
| 20260906012408 | 83 | 349 | 0.0 | 0.0 | 0.00 | 0.22 | 0.22 | 89 | 1008.5 |
| 20260906011908 | 83 | 349 | 0.0 | 0.0 | 0.00 | 0.22 | 0.22 | 87 | 1008.6 |
| 20260906011403 | 83 | 349 | 0.0 | 0.0 | 0.00 | 0.22 | 0.22 | 90 | 1008.7 |
| 20260906010858 | 83 | 349 | 0.0 | 0.0 | 0.00 | 0.22 | 0.22 | 90 | 1008.2 |
| 20260906010354 | 84 | 349 | 0.0 | 0.0 | 0.00 | 0.22 | 0.22 | 88 | 1008.5 |
| 20260906005850 | 84 | 348 | 0.0 | 0.0 | 0.00 | 0.22 | 0.22 | 88 | 1008.4 |
| 20260906005349 | 84 | 348 | 1.0 | 1.0 | 0.00 | 0.22 | 0.22 | 88 | 1008.1 |
| 20260906004848 | 84 | 350 | 0.0 | 0.0 | 0.00 | 0.22 | 0.22 | 90 | 1008.2 |
| 20260906004348 | 85 | 350 | 0.0 | 0.0 | 0.00 | 0.22 | 0.22 | 89 | 1008.2 |
| 20260906003843 | 85 | 350 | 0.0 | 0.0 | 0.00 | 0.22 | 0.22 | 87 | 1008.3 |
| 20260906003338 | 85 | 350 | 0.0 | 0.0 | 0.00 | 0.22 | 0.22 | 86 | 1008.1 |
| 20260906002834 | 86 | 350 | 0.0 | 0.0 | 0.00 | 0.22 | 0.22 | 86 | 1008.0 |
| 20260906002333 | 87 | 346 | 1.0 | 1.0 | 0.00 | 0.22 | 0.22 | 85 | 1008.2 |
| 20260906001829 | 87 | 334 | 0.0 | 0.0 | 0.00 | 0.22 | 0.22 | 82 | 1008.1 |
| 20260906001324 | 87 | 334 | 0.0 | 0.0 | 0.00 | 0.22 | 0.22 | 78 | 1008.4 |
| 20260906000819 | 87 | 334 | 0.0 | 0.0 | 0.00 | 0.22 | 0.22 | 80 | 1008.1 |
| 20260906000314 | 88 | 324 | 1.0 | 1.0 | 0.00 | 0.22 | 0.22 | 81 | 1008.1 |
| 20260905235809 | 89 | 87 | 0.0 | 0.0 | 0.00 | 0.22 | 0.22 | 83 | 1008.1 |
| 20260905235308 | 89 | 88 | 0.0 | 0.0 | 0.00 | 0.22 | 0.22 | 80 | 1008.3 |
| 20260905234804 | 89 | 88 | 0.0 | 1.0 | 0.00 | 0.22 | 0.22 | 81 | 1008.2 |
| 20260905234259 | 90 | 89 | 1.0 | 1.0 | 0.00 | 0.22 | 0.22 | 78 | 1008.2 |
| 20260905233754 | 91 | 66 | 0.0 | 1.0 | 0.00 | 0.22 | 0.22 | 81 | 1008.1 |
| 20260905233254 | 93 | 334 | 1.0 | 1.0 | 0.00 | 0.22 | 0.22 | 78 | 1008.2 |
| 20260905232753 | 93 | 333 | 1.0 | 1.0 | 0.00 | 0.22 | 0.22 | 72 | 1008.3 |
| 20260905232249 | 92 | 78 | 0.0 | 1.0 | 0.00 | 0.22 | 0.22 | 72 | 1008.3 |
| 20260905231745 | 92 | 79 | 1.0 | 1.0 | 0.00 | 0.22 | 0.22 | 77 | 1008.5 |
| 20260905231240 | 93 | 332 | 1.0 | 1.0 | 0.00 | 0.22 | 0.22 | 75 | 1008.4 |
| 20260905230736 | 93 | 327 | 1.0 | 1.0 | 0.00 | 0.22 | 0.22 | 71 | 1008.3 |
| 20260905230234 | 93 | 308 | 1.0 | 1.0 | 0.00 | 0.22 | 0.22 | 70 | 1008.2 |
| 20260905225733 | 93 | 317 | 1.0 | 1.0 | 0.00 | 0.22 | 0.22 | 71 | 1008.3 |
| 20260905225229 | 93 | 201 | 2.0 | 2.0 | 0.00 | 0.22 | 0.22 | 70 | 1008.3 |
| 20260905224728 | 93 | 187 | 2.0 | 3.0 | 0.00 | 0.22 | 0.22 | 67 | 1008.4 |
| 20260905224223 | 94 | 241 | 1.0 | 2.0 | 0.00 | 0.22 | 0.22 | 66 | 1008.4 |
| 20260905223719 | 93 | 334 | 1.0 | 1.0 | 0.00 | 0.22 | 0.22 | 73 | 1008.5 |
| 20260905223216 | 93 | 269 | 1.0 | 1.0 | 0.00 | 0.22 | 0.22 | 73 | 1008.6 |
| 20260905222712 | 92 | 238 | 2.0 | 2.0 | 0.00 | 0.22 | 0.22 | 74 | 1008.5 |
| 20260905222211 | 91 | 209 | 2.0 | 2.0 | 0.00 | 0.22 | 0.22 | 75 | 1008.3 |
| 20260905221706 | 91 | 205 | 2.0 | 3.0 | 0.00 | 0.22 | 0.22 | 74 | 1008.6 |
| 20260905221203 | 92 | 202 | 2.0 | 2.0 | 0.00 | 0.22 | 0.22 | 75 | 1008.4 |
| 20260905220659 | 92 | 193 | 1.0 | 1.0 | 0.00 | 0.22 | 0.22 | 70 | 1008.4 |
| 20260905220155 | 91 | 163 | 2.0 | 2.0 | 0.00 | 0.22 | 0.22 | 72 | 1008.5 |
| 20260905215654 | 91 | 311 | 1.0 | 1.0 | 0.00 | 0.22 | 0.22 | 72 | 1008.6 |
| 20260905215150 | 90 | 239 | 1.0 | 1.0 | 0.00 | 0.22 | 0.22 | 75 | 1008.5 |
| 20260905214646 | 89 | 182 | 3.0 | 3.0 | 0.00 | 0.22 | 0.22 | 76 | 1008.5 |
| 20260905214141 | 88 | 205 | 2.0 | 2.0 | 0.00 | 0.22 | 0.22 | 82 | 1008.6 |
| 20260905213637 | 84 | 270 | 2.0 | 2.0 | 0.00 | 0.22 | 0.22 | 81 | 1008.8 |
| 20260905213132 | 83 | 268 | 1.0 | 1.0 | 0.00 | 0.22 | 0.22 | 89 | 1008.9 |
| 20260905212627 | 82 | 308 | 1.0 | 1.0 | 0.00 | 0.22 | 0.22 | 93 | 1008.8 |
| 20260905212126 | 82 | 173 | 2.0 | 3.0 | 0.00 | 0.22 | 0.22 | 92 | 1008.7 |
| 20260905211621 | 80 | 317 | 2.0 | 2.0 | 0.00 | 0.22 | 0.22 | 92 | 1008.8 |
| 20260905211111 | 79 | 358 | 0.0 | 1.0 | 0.00 | 0.22 | 0.22 | 97 | 1008.8 |
| 20260905210608 | 78 | 352 | 1.0 | 1.0 | 0.00 | 0.22 | 0.22 | 95 | 1009.0 |
| 20260905205601 | 78 | 248 | 3.0 | 3.0 | 0.05 | 0.22 | 0.22 | 90 | 1009.1 |
| 20260905205100 | 78 | 184 | 2.0 | 3.0 | 0.05 | 0.22 | 0.22 | 90 | 1009.4 |
| 20260905204555 | 79 | 222 | 5.0 | 7.0 | 0.73 | 0.21 | 0.21 | 87 | 1009.3 |
| 20260905204050 | 76 | 214 | 16.0 | 18.0 | 1.21 | 0.20 | 0.20 | 82 | 1010.0 |
| 20260905203550 | 80 | 186 | 23.0 | 25.0 | 0.54 | 0.09 | 0.09 | 96 | 1010.3 |
| 20260905203045 | 95 | 2 | 6.0 | 9.0 | 0.00 | 0.00 | 0.00 | 53 | 1009.5 |
| 20260905202540 | 96 | 28 | 4.0 | 4.0 | 0.00 | 0.00 | 0.00 | 51 | 1009.4 |
| 20260905202036 | 98 | 32 | 2.0 | 4.0 | 0.00 | 0.00 | 0.00 | 49 | 1009.3 |
| 20260905201532 | 98 | 15 | 0.0 | 0.0 | 0.00 | 0.00 | 0.00 | 46 | 1009.3 |
| 20260905201031 | 98 | 150 | 2.0 | 2.0 | 0.00 | 0.00 | 0.00 | 48 | 1009.3 |
| 20260905200526 | 97 | 23 | 0.0 | 1.0 | 0.00 | 0.00 | 0.00 | 48 | 1009.7 |
| 20260905200020 | 97 | 81 | 3.0 | 3.0 | 0.00 | 0.00 | 0.00 | 47 | 1009.4 |
| 20260905195515 | 98 | 97 | 2.0 | 2.0 | 0.00 | 0.00 | 0.00 | 49 | 1009.5 |
| 20260905195010 | 98 | 37 | 2.0 | 3.0 | 0.00 | 0.00 | 0.00 | 47 | 1009.7 |
| 20260905194509 | 98 | 128 | 3.0 | 3.0 | 0.00 | 0.00 | 0.00 | 47 | 1009.4 |
| 20260905194004 | 101 | 138 | 4.0 | 8.0 | 0.00 | 0.00 | 0.00 | 46 | 1009.7 |
| 20260905193504 | 99 | 154 | 3.0 | 3.0 | 0.00 | 0.00 | 0.00 | 46 | 1010.0 |
| 20260905192959 | 100 | 136 | 4.0 | 4.0 | 0.00 | 0.00 | 0.00 | 47 | 1009.9 |
| 20260905192455 | 102 | 36 | 2.0 | 3.0 | 0.00 | 0.00 | 0.00 | 46 | 1009.9 |
| 20260905191951 | 100 | 72 | 0.0 | 1.0 | 0.00 | 0.00 | 0.00 | 47 | 1010.1 |
| 20260905191449 | 98 | 163 | 4.0 | 4.0 | 0.00 | 0.00 | 0.00 | 46 | 1010.1 |
| 20260905190943 | 98 | 141 | 2.0 | 2.0 | 0.00 | 0.00 | 0.00 | 47 | 1010.2 |
| 20260905190441 | 98 | 63 | 5.0 | 7.0 | 0.00 | 0.00 | 0.00 | 46 | 1010.3 |
| 20260905185940 | 97 | 45 | 3.0 | 4.0 | 0.00 | 0.00 | 0.00 | 48 | 1010.3 |
| 20260905185435 | 96 | 37 | 0.0 | 1.0 | 0.00 | 0.00 | 0.00 | 51 | 1010.5 |
| 20260905184933 | 96 | 93 | 2.0 | 2.0 | 0.00 | 0.00 | 0.00 | 56 | 1010.4 |
| 20260905184423 | 95 | 86 | 2.0 | 2.0 | 0.00 | 0.00 | 0.00 | 54 | 1010.4 |
| 20260905183922 | 95 | 48 | 2.0 | 3.0 | 0.00 | 0.00 | 0.00 | 55 | 1010.5 |
| 20260905183416 | 96 | 18 | 5.0 | 6.0 | 0.00 | 0.00 | 0.00 | 52 | 1010.7 |
| 20260905182911 | 96 | 69 | 5.0 | 7.0 | 0.00 | 0.00 | 0.00 | 52 | 1010.5 |
| 20260905182410 | 97 | 16 | 6.0 | 8.0 | 0.00 | 0.00 | 0.00 | 51 | 1010.6 |
| 20260905181906 | 97 | 22 | 4.0 | 6.0 | 0.00 | 0.00 | 0.00 | 50 | 1010.5 |
| 20260905181401 | 98 | 359 | 3.0 | 3.0 | 0.00 | 0.00 | 0.00 | 49 | 1010.6 |
| 20260905180900 | 99 | 184 | 4.0 | 6.0 | 0.00 | 0.00 | 0.00 | 45 | 1010.9 |
| 20260905180355 | 98 | 148 | 3.0 | 3.0 | 0.00 | 0.00 | 0.00 | 47 | 1010.8 |
| 20260905175850 | 98 | 167 | 2.0 | 2.0 | 0.00 | 0.00 | 0.00 | 49 | 1010.8 |
| 20260905175349 | 96 | 173 | 2.0 | 2.0 | 0.00 | 0.00 | 0.00 | 50 | 1011.0 |
| 20260905174844 | 96 | 124 | 1.0 | 2.0 | 0.00 | 0.00 | 0.00 | 50 | 1011.0 |
| 20260905174340 | 96 | 17 | 4.0 | 4.0 | 0.00 | 0.00 | 0.00 | 50 | 1010.9 |
| 20260905173831 | 97 | 56 | 2.0 | 3.0 | 0.00 | 0.00 | 0.00 | 51 | 1011.0 |
| 20260905173327 | 98 | 73 | 4.0 | 4.0 | 0.00 | 0.00 | 0.00 | 49 | 1011.0 |
| 20260905172827 | 99 | 53 | 8.0 | 9.0 | 0.00 | 0.00 | 0.00 | 48 | 1011.0 |
| 20260905172324 | 96 | 68 | 4.0 | 4.0 | 0.00 | 0.00 | 0.00 | 51 | 1011.0 |
| 20260905171821 | 96 | 114 | 4.0 | 6.0 | 0.00 | 0.00 | 0.00 | 52 | 1011.4 |
| 20260905171317 | 97 | 19 | 1.0 | 1.0 | 0.00 | 0.00 | 0.00 | 50 | 1011.1 |
| 20260905170814 | 96 | 352 | 3.0 | 3.0 | 0.00 | 0.00 | 0.00 | 52 | 1011.1 |
| 20260905170309 | 97 | 312 | 6.0 | 7.0 | 0.00 | 0.00 | 0.00 | 52 | 1011.3 |
| 20260905165807 | 97 | 197 | 2.0 | 3.0 | 0.00 | 0.00 | 0.00 | 50 | 1011.2 |
| 20260905165306 | 97 | 309 | 1.0 | 2.0 | 0.00 | 0.00 | 0.00 | 52 | 1011.3 |
| 20260905164757 | 97 | 0 | 2.0 | 3.0 | 0.00 | 0.00 | 0.00 | 51 | 1011.4 |
| 20260905164252 | 97 | 38 | 2.0 | 3.0 | 0.00 | 0.00 | 0.00 | 53 | 1011.7 |
| 20260905163748 | 97 | 19 | 3.0 | 3.0 | 0.00 | 0.00 | 0.00 | 52 | 1011.6 |
| 20260905163244 | 96 | 8 | 2.0 | 3.0 | 0.00 | 0.00 | 0.00 | 55 | 1011.6 |
| 20260905162740 | 96 | 356 | 4.0 | 4.0 | 0.00 | 0.00 | 0.00 | 54 | 1011.7 |
| 20260905162239 | 96 | 56 | 3.0 | 3.0 | 0.00 | 0.00 | 0.00 | 53 | 1011.6 |
| 20260905161734 | 96 | 7 | 3.0 | 4.0 | 0.00 | 0.00 | 0.00 | 55 | 1011.5 |
| 20260905161232 | 96 | 353 | 3.0 | 3.0 | 0.00 | 0.00 | 0.00 | 55 | 1011.8 |
| 20260905160731 | 95 | 39 | 0.0 | 1.0 | 0.00 | 0.00 | 0.00 | 56 | 1011.8 |
| 20260905160226 | 95 | 17 | 2.0 | 4.0 | 0.00 | 0.00 | 0.00 | 58 | 1012.0 |
| 20260905155726 | 95 | 14 | 2.0 | 3.0 | 0.00 | 0.00 | 0.00 | 58 | 1011.8 |
| 20260905155220 | 94 | 328 | 6.0 | 7.0 | 0.00 | 0.00 | 0.00 | 59 | 1011.8 |
| 20260905154713 | 95 | 4 | 2.0 | 3.0 | 0.00 | 0.00 | 0.00 | 59 | 1012.0 |
| 20260905154203 | 94 | 348 | 1.0 | 2.0 | 0.00 | 0.00 | 0.00 | 59 | 1011.8 |
| 20260905153659 | 93 | 2 | 1.0 | 1.0 | 0.00 | 0.00 | 0.00 | 59 | 1012.2 |
| 20260905153154 | 93 | 75 | 3.0 | 3.0 | 0.00 | 0.00 | 0.00 | 60 | 1011.9 |
| 20260905152649 | 93 | 335 | 3.0 | 3.0 | 0.00 | 0.00 | 0.00 | 62 | 1012.0 |
| 20260905152143 | 93 | 26 | 3.0 | 4.0 | 0.00 | 0.00 | 0.00 | 62 | 1011.9 |
| 20260905151638 | 92 | 51 | 1.0 | 2.0 | 0.00 | 0.00 | 0.00 | 61 | 1012.1 |
| 20260905151128 | 92 | 346 | 3.0 | 3.0 | 0.00 | 0.00 | 0.00 | 64 | 1012.1 |
| 20260905150624 | 92 | 7 | 0.0 | 1.0 | 0.00 | 0.00 | 0.00 | 64 | 1012.1 |
| 20260905150122 | 91 | 19 | 2.0 | 2.0 | 0.00 | 0.00 | 0.00 | 66 | 1012.0 |
| 20260905145621 | 91 | 325 | 3.0 | 3.0 | 0.00 | 0.00 | 0.00 | 68 | 1012.0 |
| 20260905145120 | 91 | 1 | 1.0 | 1.0 | 0.00 | 0.00 | 0.00 | 68 | 1012.1 |
| 20260905144620 | 92 | 347 | 1.0 | 2.0 | 0.00 | 0.00 | 0.00 | 66 | 1011.9 |
| 20260905144120 | 90 | 344 | 1.0 | 1.0 | 0.00 | 0.00 | 0.00 | 69 | 1011.9 |
| 20260905143620 | 89 | 353 | 1.0 | 1.0 | 0.00 | 0.00 | 0.00 | 71 | 1012.0 |
| 20260905143114 | 88 | 4 | 1.0 | 2.0 | 0.00 | 0.00 | 0.00 | 72 | 1011.9 |
| 20260905142614 | 88 | 24 | 2.0 | 2.0 | 0.00 | 0.00 | 0.00 | 72 | 1011.8 |
| 20260905142113 | 89 | 30 | 1.0 | 1.0 | 0.00 | 0.00 | 0.00 | 71 | 1011.9 |
| 20260905141613 | 87 | 36 | 0.0 | 0.0 | 0.00 | 0.00 | 0.00 | 72 | 1012.0 |
| 20260905141110 | 87 | 352 | 2.0 | 2.0 | 0.00 | 0.00 | 0.00 | 74 | 1012.0 |
| 20260905140605 | 86 | 233 | 1.0 | 1.0 | 0.00 | 0.00 | 0.00 | 76 | 1012.1 |
| 20260905140104 | 86 | 350 | 1.0 | 1.0 | 0.00 | 0.00 | 0.00 | 77 | 1011.9 |
| 20260905135559 | 86 | 249 | 0.0 | 1.0 | 0.00 | 0.00 | 0.00 | 76 | 1011.9 |
| 20260905135054 | 84 | 250 | 1.0 | 1.0 | 0.00 | 0.00 | 0.00 | 79 | 1011.8 |
| 20260905134548 | 84 | 250 | 1.0 | 2.0 | 0.00 | 0.00 | 0.00 | 81 | 1011.7 |
| 20260905134047 | 83 | 248 | 2.0 | 2.0 | 0.00 | 0.00 | 0.00 | 82 | 1012.0 |
| 20260905133542 | 82 | 248 | 2.0 | 3.0 | 0.00 | 0.00 | 0.00 | 83 | 1011.9 |
| 20260905133036 | 82 | 248 | 4.0 | 4.0 | 0.00 | 0.00 | 0.00 | 84 | 1011.8 |
| 20260905132531 | 81 | 273 | 2.0 | 3.0 | 0.00 | 0.00 | 0.00 | 85 | 1012.0 |
| 20260905132026 | 82 | 273 | 3.0 | 3.0 | 0.00 | 0.00 | 0.00 | 85 | 1011.9 |
| 20260905131521 | 81 | 323 | 0.0 | 1.0 | 0.00 | 0.00 | 0.00 | 84 | 1011.7 |
| 20260905131016 | 81 | 323 | 1.0 | 2.0 | 0.00 | 0.00 | 0.00 | 87 | 1011.7 |
| 20260905130515 | 80 | 323 | 0.0 | 0.0 | 0.00 | 0.00 | 0.00 | 87 | 1011.7 |
| 20260905130010 | 80 | 323 | 0.0 | 1.0 | 0.00 | 0.00 | 0.00 | 88 | 1011.8 |
| 20260905125459 | 80 | 323 | 0.0 | 0.0 | 0.00 | 0.00 | 0.00 | 89 | 1011.7 |
| 20260905124955 | 79 | 323 | 0.0 | 0.0 | 0.00 | 0.00 | 0.00 | 91 | 1011.8 |
| 20260905124451 | 78 | 323 | 0.0 | 0.0 | 0.00 | 0.00 | 0.00 | 92 | 1011.7 |
| 20260905123947 | 78 | 323 | 0.0 | 0.0 | 0.00 | 0.00 | 0.00 | 94 | 1011.7 |
| 20260905123443 | 76 | 323 | 0.0 | 0.0 | 0.00 | 0.00 | 0.00 | 96 | 1011.6 |
| 20260905122942 | 75 | 323 | 0.0 | 0.0 | 0.00 | 0.00 | 0.00 | 97 | 1011.4 |
| 20260905122437 | 74 | 323 | 0.0 | 0.0 | 0.00 | 0.00 | 0.00 | 98 | 1011.6 |
| 20260905121933 | 74 | 323 | 0.0 | 1.0 | 0.00 | 0.00 | 0.00 | 99 | 1011.5 |
| 20260905121428 | 73 | 323 | 0.0 | 0.0 | 0.00 | 0.00 | 0.00 | 99 | 1011.8 |
| 20260905120927 | 73 | 323 | 0.0 | 0.0 | 0.00 | 0.00 | 0.00 | 99 | 1011.7 |
| 20260905120422 | 73 | 323 | 0.0 | 0.0 | 0.00 | 0.00 | 0.00 | 99 | 1011.5 |
| 20260905115917 | 73 | 323 | 0.0 | 0.0 | 0.00 | 0.00 | 0.00 | 99 | 1011.4 |
| 20260905115416 | 73 | 323 | 2.0 | 2.0 | 0.00 | 0.00 | 0.00 | 99 | 1011.2 |
| 20260905114911 | 73 | 323 | 1.0 | 1.0 | 0.00 | 0.00 | 0.00 | 99 | 1011.2 |
| 20260905114410 | 73 | 323 | 1.0 | 1.0 | 0.00 | 0.00 | 0.00 | 99 | 1011.2 |
| 20260905113904 | 73 | 323 | 0.0 | 0.0 | 0.00 | 0.00 | 0.00 | 99 | 1011.1 |
| 20260905113359 | 73 | 323 | 1.0 | 2.0 | 0.00 | 0.00 | 0.00 | 99 | 1011.1 |
| 20260905112855 | 73 | 323 | 1.0 | 2.0 | 0.00 | 0.00 | 0.00 | 99 | 1011.1 |
| 20260905112350 | 73 | 323 | 0.0 | 0.0 | 0.00 | 0.00 | 0.00 | 99 | 1010.8 |
| 20260905111845 | 73 | 323 | 0.0 | 0.0 | 0.00 | 0.00 | 0.00 | 99 | 1010.9 |
| 20260905111339 | 73 | 323 | 0.0 | 0.0 | 0.00 | 0.00 | 0.00 | 99 | 1010.7 |
| 20260905110838 | 73 | 323 | 1.0 | 2.0 | 0.00 | 0.00 | 0.00 | 99 | 1010.9 |
| 20260905110338 | 73 | 323 | 1.0 | 1.0 | 0.00 | 0.00 | 0.00 | 99 | 1010.7 |
| 20260905105828 | 73 | 323 | 0.0 | 0.0 | 0.00 | 0.00 | 0.00 | 99 | 1010.7 |
| 20260905105327 | 73 | 323 | 0.0 | 0.0 | 0.00 | 0.00 | 0.00 | 99 | 1010.8 |
| 20260905104821 | 73 | 323 | 1.0 | 1.0 | 0.00 | 0.00 | 0.00 | 99 | 1010.8 |
| 20260905104318 | 73 | 323 | 0.0 | 1.0 | 0.00 | 0.00 | 0.00 | 99 | 1010.8 |
| 20260905103817 | 74 | 323 | 0.0 | 0.0 | 0.00 | 0.00 | 0.00 | 99 | 1010.9 |
| 20260905103313 | 74 | 323 | 0.0 | 0.0 | 0.00 | 0.00 | 0.00 | 99 | 1010.9 |
| 20260905102809 | 74 | 323 | 1.0 | 1.0 | 0.00 | 0.00 | 0.00 | 99 | 1010.7 |
| 20260905102306 | 73 | 323 | 1.0 | 1.0 | 0.00 | 0.00 | 0.00 | 99 | 1010.8 |
| 20260905101805 | 73 | 323 | 0.0 | 0.0 | 0.00 | 0.00 | 0.00 | 99 | 1010.6 |
| 20260905101304 | 74 | 323 | 0.0 | 0.0 | 0.00 | 0.00 | 0.00 | 99 | 1010.7 |
| 20260905100757 | 74 | 323 | 0.0 | 0.0 | 0.00 | 0.00 | 0.00 | 99 | 1010.8 |
| 20260905100253 | 74 | 323 | 0.0 | 0.0 | 0.00 | 0.00 | 0.00 | 99 | 1010.8 |
| 20260905095753 | 74 | 323 | 0.0 | 0.0 | 0.00 | 0.00 | 0.00 | 98 | 1010.7 |
| 20260905095247 | 74 | 323 | 0.0 | 0.0 | 0.00 | 0.00 | 0.00 | 98 | 1010.9 |
| 20260905094741 | 74 | 323 | 0.0 | 0.0 | 0.00 | 0.00 | 0.00 | 98 | 1011.0 |
| 20260905094237 | 74 | 323 | 0.0 | 0.0 | 0.00 | 0.00 | 0.00 | 98 | 1010.9 |
| 20260905093731 | 74 | 323 | 0.0 | 0.0 | 0.00 | 0.00 | 0.00 | 98 | 1010.8 |
| 20260905093227 | 74 | 323 | 0.0 | 0.0 | 0.00 | 0.00 | 0.00 | 98 | 1010.7 |
| 20260905092722 | 74 | 323 | 0.0 | 1.0 | 0.00 | 0.00 | 0.00 | 98 | 1011.0 |
| 20260905092217 | 74 | 323 | 1.0 | 1.0 | 0.00 | 0.00 | 0.00 | 98 | 1010.6 |
| 20260905091717 | 74 | 323 | 1.0 | 1.0 | 0.00 | 0.00 | 0.00 | 98 | 1010.5 |
| 20260905091212 | 74 | 323 | 0.0 | 0.0 | 0.00 | 0.00 | 0.00 | 98 | 1010.6 |
| 20260905090711 | 74 | 323 | 1.0 | 1.0 | 0.00 | 0.00 | 0.00 | 98 | 1010.4 |
| 20260905090207 | 74 | 323 | 1.0 | 1.0 | 0.00 | 0.00 | 0.00 | 98 | 1010.6 |
| 20260905085705 | 74 | 323 | 0.0 | 1.0 | 0.00 | 0.00 | 0.00 | 97 | 1010.4 |
| 20260905085200 | 75 | 323 | 0.0 | 0.0 | 0.00 | 0.00 | 0.00 | 97 | 1010.7 |
| 20260905084654 | 75 | 323 | 0.0 | 0.0 | 0.00 | 0.00 | 0.00 | 96 | 1010.7 |
| 20260905084150 | 75 | 323 | 0.0 | 0.0 | 0.00 | 0.00 | 0.00 | 96 | 1010.5 |
| 20260905083650 | 75 | 323 | 0.0 | 0.0 | 0.00 | 0.00 | 0.00 | 96 | 1010.7 |
| 20260905083146 | 75 | 323 | 1.0 | 1.0 | 0.00 | 0.00 | 0.00 | 96 | 1010.7 |
| 20260905082642 | 75 | 323 | 0.0 | 0.0 | 0.00 | 0.00 | 0.00 | 96 | 1010.8 |
| 20260905082137 | 75 | 15 | 1.0 | 1.0 | 0.00 | 0.00 | 0.00 | 97 | 1010.7 |
| 20260905081632 | 75 | 16 | 0.0 | 0.0 | 0.00 | 0.00 | 0.00 | 97 | 1010.7 |
| 20260905081132 | 75 | 15 | 1.0 | 1.0 | 0.00 | 0.00 | 0.00 | 96 | 1010.8 |
| 20260905080626 | 75 | 16 | 0.0 | 1.0 | 0.00 | 0.00 | 0.00 | 96 | 1010.9 |
| 20260905080121 | 75 | 16 | 1.0 | 1.0 | 0.00 | 0.00 | 0.00 | 96 | 1010.9 |
| 20260905075620 | 76 | 336 | 1.0 | 1.0 | 0.00 | 0.00 | 0.00 | 95 | 1010.8 |
| 20260905075119 | 76 | 0 | 1.0 | 1.0 | 0.00 | 0.00 | 0.00 | 96 | 1010.8 |
| 20260905074618 | 75 | 55 | 0.0 | 1.0 | 0.00 | 0.00 | 0.00 | 95 | 1010.9 |
| 20260905074115 | 76 | 355 | 0.0 | 0.0 | 0.00 | 0.00 | 0.00 | 95 | 1010.7 |
| 20260905073610 | 76 | 345 | 1.0 | 1.0 | 0.00 | 0.00 | 0.00 | 95 | 1010.8 |
| 20260905073106 | 76 | 333 | 0.0 | 0.0 | 0.00 | 0.00 | 0.00 | 95 | 1010.8 |
| 20260905072604 | 76 | 346 | 1.0 | 1.0 | 0.00 | 0.00 | 0.00 | 95 | 1011.0 |
| 20260905072100 | 76 | 347 | 0.0 | 0.0 | 0.00 | 0.00 | 0.00 | 95 | 1011.0 |
| 20260905071557 | 76 | 347 | 0.0 | 0.0 | 0.00 | 0.00 | 0.00 | 94 | 1010.9 |
| 20260905071057 | 76 | 346 | 0.0 | 1.0 | 0.00 | 0.00 | 0.00 | 95 | 1010.9 |
| 20260905070552 | 76 | 80 | 0.0 | 0.0 | 0.00 | 0.00 | 0.00 | 95 | 1010.8 |
| 20260905070048 | 76 | 57 | 1.0 | 1.0 | 0.00 | 0.00 | 0.00 | 94 | 1011.0 |
| 20260905065545 | 76 | 355 | 1.0 | 1.0 | 0.00 | 0.00 | 0.00 | 94 | 1011.1 |
| 20260905065042 | 76 | 354 | 0.0 | 0.0 | 0.00 | 0.00 | 0.00 | 94 | 1010.9 |
| 20260905064541 | 76 | 354 | 0.0 | 0.0 | 0.00 | 0.00 | 0.00 | 94 | 1010.9 |
| 20260905064037 | 76 | 354 | 0.0 | 0.0 | 0.00 | 0.00 | 0.00 | 94 | 1010.9 |
| 20260905063536 | 76 | 355 | 0.0 | 0.0 | 0.00 | 0.00 | 0.00 | 93 | 1010.9 |
| 20260905063032 | 76 | 355 | 0.0 | 0.0 | 0.00 | 0.00 | 0.00 | 93 | 1011.0 |
| 20260905062532 | 77 | 355 | 1.0 | 1.0 | 0.00 | 0.00 | 0.00 | 93 | 1011.0 |
| 20260905062026 | 77 | 355 | 0.0 | 0.0 | 0.00 | 0.00 | 0.00 | 93 | 1011.1 |
| 20260905061522 | 77 | 353 | 0.0 | 0.0 | 0.00 | 0.00 | 0.00 | 92 | 1011.0 |
| 20260905061020 | 77 | 350 | 1.0 | 1.0 | 0.00 | 0.00 | 0.00 | 93 | 1010.9 |
| 20260905060517 | 77 | 39 | 0.0 | 0.0 | 0.00 | 0.00 | 0.00 | 93 | 1010.9 |
| 20260905060013 | 77 | 39 | 0.0 | 1.0 | 0.00 | 0.00 | 0.00 | 92 | 1011.0 |
| 20260905055511 | 77 | 39 | 0.0 | 0.0 | 0.00 | 0.00 | 0.00 | 92 | 1010.9 |
| 20260905055006 | 77 | 39 | 0.0 | 0.0 | 0.00 | 0.00 | 0.00 | 91 | 1011.0 |
| 20260905054501 | 78 | 39 | 0.0 | 0.0 | 0.00 | 0.00 | 0.00 | 91 | 1010.9 |
| 20260905053956 | 78 | 39 | 0.0 | 0.0 | 0.00 | 0.00 | 0.00 | 91 | 1011.0 |
| 20260905053451 | 77 | 62 | 0.0 | 0.0 | 0.00 | 0.00 | 0.00 | 91 | 1011.0 |
| 20260905052947 | 77 | 82 | 1.0 | 1.0 | 0.00 | 0.00 | 0.00 | 91 | 1011.1 |
| 20260905052446 | 78 | 27 | 0.0 | 0.0 | 0.00 | 0.00 | 0.00 | 91 | 1010.9 |
| 20260905051946 | 78 | 27 | 0.0 | 0.0 | 0.00 | 0.00 | 0.00 | 91 | 1010.9 |
| 20260905051441 | 78 | 27 | 0.0 | 0.0 | 0.00 | 0.00 | 0.00 | 90 | 1011.0 |
| 20260905050939 | 78 | 27 | 1.0 | 1.0 | 0.00 | 0.00 | 0.00 | 90 | 1011.0 |
| 20260905050434 | 78 | 27 | 0.0 | 0.0 | 0.00 | 0.00 | 0.00 | 90 | 1010.9 |
| 20260905045930 | 78 | 26 | 0.0 | 0.0 | 0.00 | 0.00 | 0.00 | 89 | 1010.8 |
| 20260905045425 | 78 | 26 | 0.0 | 0.0 | 0.00 | 0.00 | 0.00 | 89 | 1011.0 |
| 20260905044921 | 78 | 26 | 0.0 | 0.0 | 0.00 | 0.00 | 0.00 | 89 | 1010.9 |